Time,TemperatureF,DewpointF,PressureIn,WindDirection,WindDirectionDegrees,WindSpeedMPH,WindSpeedGustMPH,Humidity,HourlyPrecipIn,Conditions,Clouds,dailyrainin,SoftwareType,DateUTC
2013-08-27 00:01:00,57.2,29.8,29.96,West,259,0.0,0.0,35,0.00,,---,0.00,VWS V14.01,2013-08-27 06:01:00,
2013-08-27 00:06:00,57.0,30.4,29.96,West,259,0.0,0.0,36,0.00,,---,0.00,VWS V14.01,2013-08-27 06:06:00,
2013-08-27 00:11:00,56.7,30.0,29.96,West,259,0.0,0.0,36,0.00,,---,0.00,VWS V14.01,2013-08-27 06:11:00,
2013-08-27 00:16:00,56.1,29.5,29.96,West,259,0.0,0.0,36,0.00,,---,0.00,VWS V14.01,2013-08-27 06:16:00,
2013-08-27 00:21:00,55.9,29.4,29.96,West,259,0.0,0.0,36,0.00,,---,0.00,VWS V14.01,2013-08-27 06:21:00,
2013-08-27 00:26:00,55.8,29.2,29.96,West,259,0.0,0.0,36,0.00,,---,0.00,VWS V14.01,2013-08-27 06:26:00,
2013-08-27 00:31:00,55.8,29.2,29.96,WSW,251,0.0,0.0,36,0.00,,---,0.00,VWS V14.01,2013-08-27 06:31:00,
2013-08-27 00:36:00,55.8,29.9,29.96,WSW,251,0.0,0.0,37,0.00,,---,0.00,VWS V14.01,2013-08-27 06:36:00,
2013-08-27 00:41:00,55.8,29.2,29.96,WSW,251,0.0,0.0,36,0.00,,---,0.00,VWS V14.01,2013-08-27 06:41:00,
2013-08-27 00:46:00,55.2,29.4,29.96,South,175,0.0,0.0,37,0.00,,---,0.00,VWS V14.01,2013-08-27 06:46:00,
2013-08-27 00:51:00,54.9,29.1,29.96,SSE,168,0.0,0.0,37,0.00,,---,0.00,VWS V14.01,2013-08-27 06:51:00,
2013-08-27 00:56:00,54.9,29.8,29.96,SSE,168,0.0,0.0,38,0.00,,---,0.00,VWS V14.01,2013-08-27 06:56:00,
2013-08-27 01:01:00,54.3,29.3,29.96,SE,140,0.0,0.0,38,0.00,,---,0.00,VWS V14.01,2013-08-27 07:01:00,
2013-08-27 01:06:00,53.1,28.8,29.96,SE,140,0.0,0.0,39,0.00,,---,0.00,VWS V14.01,2013-08-27 07:06:00,
2013-08-27 01:11:00,53.2,29.6,29.96,WSW,248,0.0,0.0,40,0.00,,---,0.00,VWS V14.01,2013-08-27 07:11:00,
2013-08-27 01:16:00,53.2,29.6,29.96,WSW,249,0.0,0.0,40,0.00,,---,0.00,VWS V14.01,2013-08-27 07:16:00,
2013-08-27 01:21:00,53.2,30.2,29.96,West,263,0.0,0.0,41,0.00,,---,0.00,VWS V14.01,2013-08-27 07:21:00,
2013-08-27 01:26:00,53.8,30.0,29.96,WSW,257,0.0,3.1,40,0.00,,---,0.00,VWS V14.01,2013-08-27 07:26:00,
2013-08-27 01:31:00,54.7,30.9,29.96,SSW,209,0.0,0.0,40,0.00,,---,0.00,VWS V14.01,2013-08-27 07:31:00,
2013-08-27 01:36:00,55.2,30.7,29.96,SSW,209,0.0,0.0,39,0.00,,---,0.00,VWS V14.01,2013-08-27 07:36:00,
2013-08-27 01:41:00,54.9,29.8,29.96,SSW,211,0.0,0.0,38,0.00,,---,0.00,VWS V14.01,2013-08-27 07:41:00,
2013-08-27 01:46:00,54.3,29.3,29.96,SSW,211,0.0,0.0,38,0.00,,---,0.00,VWS V14.01,2013-08-27 07:46:00,
2013-08-27 01:51:00,54.1,29.8,29.96,SSW,211,0.0,0.0,39,0.00,,---,0.00,VWS V14.01,2013-08-27 07:51:00,
2013-08-27 01:56:00,54.0,29.0,29.96,SSW,211,0.0,0.0,38,0.00,,---,0.00,VWS V14.01,2013-08-27 07:56:00,
2013-08-27 02:01:00,53.8,29.4,29.96,SSW,211,0.0,0.0,39,0.00,,---,0.00,VWS V14.01,2013-08-27 08:01:00,
2013-08-27 02:06:00,53.6,29.3,29.96,SW,227,0.0,0.0,39,0.00,,---,0.00,VWS V14.01,2013-08-27 08:06:00,
2013-08-27 02:11:00,53.4,29.1,29.96,WSW,245,0.0,0.0,39,0.00,,---,0.00,VWS V14.01,2013-08-27 08:11:00,
2013-08-27 02:16:00,53.8,29.4,29.96,SSW,207,0.0,0.0,39,0.00,,---,0.00,VWS V14.01,2013-08-27 08:16:00,
2013-08-27 02:21:00,54.7,30.2,29.96,SW,227,0.0,4.0,39,0.00,,---,0.00,VWS V14.01,2013-08-27 08:21:00,
2013-08-27 02:26:00,55.6,29.7,29.96,SW,227,0.0,4.0,37,0.00,,---,0.00,VWS V14.01,2013-08-27 08:26:00,
2013-08-27 02:31:00,55.8,29.9,29.96,SW,229,3.1,3.1,37,0.00,,---,0.00,VWS V14.01,2013-08-27 08:31:00,
2013-08-27 02:36:00,56.1,29.5,29.96,SW,229,0.0,3.1,36,0.00,,---,0.00,VWS V14.01,2013-08-27 08:36:00,
2013-08-27 02:41:00,55.8,29.2,29.96,SW,229,0.0,3.1,36,0.00,,---,0.00,VWS V14.01,2013-08-27 08:41:00,
2013-08-27 02:46:00,55.0,29.3,29.96,SW,229,0.0,0.0,37,0.00,,---,0.00,VWS V14.01,2013-08-27 08:46:00,
2013-08-27 02:51:00,54.7,28.9,29.96,SW,229,0.0,0.0,37,0.00,,---,0.00,VWS V14.01,2013-08-27 08:51:00,
2013-08-27 02:56:00,53.8,28.1,29.96,SW,229,0.0,0.0,37,0.00,,---,0.00,VWS V14.01,2013-08-27 08:56:00,
2013-08-27 03:01:00,53.2,28.3,29.96,SW,229,0.0,0.0,38,0.00,,---,0.00,VWS V14.01,2013-08-27 09:01:00,
2013-08-27 03:06:00,52.7,28.5,29.96,SW,229,0.0,0.0,39,0.00,,---,0.00,VWS V14.01,2013-08-27 09:06:00,
2013-08-27 03:11:00,52.5,28.3,29.96,SW,229,0.0,0.0,39,0.00,,---,0.00,VWS V14.01,2013-08-27 09:11:00,
2013-08-27 03:16:00,52.3,28.8,29.96,SW,233,0.0,0.0,40,0.00,,---,0.00,VWS V14.01,2013-08-27 09:16:00,
2013-08-27 03:21:00,52.5,28.9,29.96,SW,231,0.0,0.0,40,0.00,,---,0.00,VWS V14.01,2013-08-27 09:21:00,
2013-08-27 03:26:00,52.9,29.2,29.96,SW,231,0.0,0.0,40,0.00,,---,0.00,VWS V14.01,2013-08-27 09:26:00,
2013-08-27 03:31:00,52.9,29.2,29.96,SW,231,0.0,0.0,40,0.00,,---,0.00,VWS V14.01,2013-08-27 09:31:00,
2013-08-27 03:36:00,52.5,28.9,29.96,SW,231,0.0,0.0,40,0.00,,---,0.00,VWS V14.01,2013-08-27 09:36:00,
2013-08-27 03:40:00,52.3,28.8,29.96,SW,231,0.0,0.0,40,0.00,,---,0.00,VWS V14.01,2013-08-27 09:40:00,
2013-08-27 03:45:00,52.2,28.6,29.96,SW,231,0.0,0.0,40,0.00,,---,0.00,VWS V14.01,2013-08-27 09:45:00,
2013-08-27 03:50:00,51.6,28.1,29.96,SW,231,0.0,0.0,40,0.00,,---,0.00,VWS V14.01,2013-08-27 09:50:00,
2013-08-27 03:55:00,51.4,28.5,29.96,West,261,0.0,0.0,41,0.00,,---,0.00,VWS V14.01,2013-08-27 09:55:00,
2013-08-27 04:00:00,51.4,28.5,29.96,West,266,0.0,0.0,41,0.00,,---,0.00,VWS V14.01,2013-08-27 10:00:00,
2013-08-27 04:05:00,50.9,28.1,29.96,West,266,0.0,0.0,41,0.00,,---,0.00,VWS V14.01,2013-08-27 10:05:00,
2013-08-27 04:10:00,50.5,27.7,29.96,West,266,0.0,0.0,41,0.00,,---,0.00,VWS V14.01,2013-08-27 10:10:00,
2013-08-27 04:15:00,50.5,28.3,29.96,SW,222,3.1,3.1,42,0.00,,---,0.00,VWS V14.01,2013-08-27 10:15:00,
2013-08-27 04:20:00,50.5,28.3,29.96,SW,222,0.0,3.1,42,0.00,,---,0.00,VWS V14.01,2013-08-27 10:20:00,
2013-08-27 04:25:00,50.5,28.9,29.96,SW,231,0.0,3.1,43,0.00,,---,0.00,VWS V14.01,2013-08-27 10:25:00,
2013-08-27 04:30:00,50.4,28.7,29.96,SW,231,0.0,0.0,43,0.00,,---,0.00,VWS V14.01,2013-08-27 10:30:00,
2013-08-27 04:35:00,49.8,28.2,29.96,East,92,0.0,0.0,43,0.00,,---,0.00,VWS V14.01,2013-08-27 10:35:00,
2013-08-27 04:40:00,49.3,28.3,29.96,East,92,0.0,0.0,44,0.00,,---,0.00,VWS V14.01,2013-08-27 10:40:00,
2013-08-27 04:45:00,48.9,28.0,29.96,East,92,0.0,0.0,44,0.00,,---,0.00,VWS V14.01,2013-08-27 10:45:00,
2013-08-27 04:50:00,48.7,27.8,29.96,East,92,0.0,0.0,44,0.00,,---,0.00,VWS V14.01,2013-08-27 10:50:00,
2013-08-27 04:55:00,48.7,28.4,29.96,East,92,0.0,0.0,45,0.00,,---,0.00,VWS V14.01,2013-08-27 10:55:00,
2013-08-27 05:00:00,48.6,28.2,29.96,East,92,0.0,0.0,45,0.00,,---,0.00,VWS V14.01,2013-08-27 11:00:00,
2013-08-27 05:05:00,48.7,28.9,29.96,East,92,0.0,0.0,46,0.00,,---,0.00,VWS V14.01,2013-08-27 11:05:00,
2013-08-27 05:10:00,48.7,29.4,29.96,East,92,0.0,0.0,47,0.00,,---,0.00,VWS V14.01,2013-08-27 11:10:00,
2013-08-27 05:15:00,48.7,29.4,29.96,East,92,0.0,0.0,47,0.00,,---,0.00,VWS V14.01,2013-08-27 11:15:00,
2013-08-27 05:20:00,48.9,30.1,29.96,East,92,0.0,0.0,48,0.00,,---,0.00,VWS V14.01,2013-08-27 11:20:00,
2013-08-27 05:25:00,49.1,30.3,29.96,East,92,0.0,0.0,48,0.00,,---,0.00,VWS V14.01,2013-08-27 11:25:00,
2013-08-27 05:30:00,48.9,30.1,29.96,East,92,0.0,0.0,48,0.00,,---,0.00,VWS V14.01,2013-08-27 11:30:00,
2013-08-27 05:35:00,49.1,30.3,29.96,East,92,0.0,0.0,48,0.00,,---,0.00,VWS V14.01,2013-08-27 11:35:00,
2013-08-27 05:40:00,49.3,30.4,29.96,South,190,0.0,0.0,48,0.00,,---,0.00,VWS V14.01,2013-08-27 11:40:00,
2013-08-27 05:45:00,49.6,30.8,29.96,SW,232,0.0,0.0,48,0.00,,---,0.00,VWS V14.01,2013-08-27 11:45:00,
2013-08-27 05:50:00,49.5,30.6,29.96,SW,232,0.0,0.0,48,0.00,,---,0.00,VWS V14.01,2013-08-27 11:50:00,
2013-08-27 05:55:00,49.3,30.4,29.96,SW,232,0.0,0.0,48,0.00,,---,0.00,VWS V14.01,2013-08-27 11:55:00,
2013-08-27 06:00:00,48.9,30.1,29.96,SW,232,0.0,0.0,48,0.00,,---,0.00,VWS V14.01,2013-08-27 12:00:00,
2013-08-27 06:05:00,48.9,30.1,29.96,SW,232,0.0,0.0,48,0.00,,---,0.00,VWS V14.01,2013-08-27 12:05:00,
2013-08-27 06:10:00,48.7,30.5,29.96,SW,232,0.0,0.0,49,0.00,,---,0.00,VWS V14.01,2013-08-27 12:10:00,
2013-08-27 06:15:00,48.7,30.5,29.96,SW,232,0.0,0.0,49,0.00,,---,0.00,VWS V14.01,2013-08-27 12:15:00,
2013-08-27 06:20:00,48.6,30.3,29.96,SW,232,0.0,0.0,49,0.00,,---,0.00,VWS V14.01,2013-08-27 12:20:00,
2013-08-27 06:25:00,48.2,30.0,29.96,SW,232,0.0,0.0,49,0.00,,---,0.00,VWS V14.01,2013-08-27 12:25:00,
2013-08-27 06:30:00,48.2,30.0,29.96,SW,232,0.0,0.0,49,0.00,,---,0.00,VWS V14.01,2013-08-27 12:30:00,
2013-08-27 06:35:00,48.2,30.0,29.96,SW,232,0.0,0.0,49,0.00,,---,0.00,VWS V14.01,2013-08-27 12:35:00,
2013-08-27 06:40:00,48.2,30.0,29.96,SW,232,0.0,0.0,49,0.00,,---,0.00,VWS V14.01,2013-08-27 12:40:00,
2013-08-27 06:45:00,48.2,30.0,29.96,SW,232,0.0,0.0,49,0.00,,---,0.00,VWS V14.01,2013-08-27 12:45:00,
2013-08-27 06:50:00,48.0,30.3,29.96,SW,232,0.0,0.0,50,0.00,,---,0.00,VWS V14.01,2013-08-27 12:50:00,
2013-08-27 06:55:00,47.8,30.1,29.96,SW,232,0.0,0.0,50,0.00,,---,0.00,VWS V14.01,2013-08-27 12:55:00,
2013-08-27 07:00:00,47.7,30.0,29.96,SW,232,0.0,0.0,50,0.00,,---,0.00,VWS V14.01,2013-08-27 13:00:00,
2013-08-27 07:05:00,47.5,29.8,29.99,SW,232,0.0,0.0,50,0.00,,---,0.00,VWS V14.01,2013-08-27 13:05:00,
2013-08-27 07:10:00,47.7,30.0,29.99,SW,232,0.0,0.0,50,0.00,,---,0.00,VWS V14.01,2013-08-27 13:10:00,
2013-08-27 07:15:00,47.7,30.0,29.99,SW,232,0.0,0.0,50,0.00,,---,0.00,VWS V14.01,2013-08-27 13:15:00,
2013-08-27 07:20:00,47.7,30.4,29.99,SW,232,0.0,0.0,51,0.00,,---,0.00,VWS V14.01,2013-08-27 13:20:00,
2013-08-27 07:25:00,47.8,30.6,29.99,SW,232,0.0,0.0,51,0.00,,---,0.00,VWS V14.01,2013-08-27 13:25:00,
2013-08-27 07:30:00,48.0,30.8,29.99,SW,232,0.0,0.0,51,0.00,,---,0.00,VWS V14.01,2013-08-27 13:30:00,
2013-08-27 07:35:00,48.4,31.1,29.99,SW,232,0.0,0.0,51,0.00,,---,0.00,VWS V14.01,2013-08-27 13:35:00,
2013-08-27 07:40:00,48.7,31.4,29.99,SW,232,0.0,0.0,51,0.00,,---,0.00,VWS V14.01,2013-08-27 13:40:00,
2013-08-27 07:45:00,48.9,31.6,29.99,SW,232,0.0,0.0,51,0.00,,---,0.00,VWS V14.01,2013-08-27 13:45:00,
2013-08-27 07:50:00,49.3,31.9,29.99,SW,232,0.0,0.0,51,0.00,,---,0.00,VWS V14.01,2013-08-27 13:50:00,
2013-08-27 07:55:00,50.0,32.6,29.99,SW,232,0.0,0.0,51,0.00,,---,0.00,VWS V14.01,2013-08-27 13:55:00,
2013-08-27 08:00:00,51.1,33.6,29.99,SW,232,0.0,0.0,51,0.00,,---,0.00,VWS V14.01,2013-08-27 14:00:00,
2013-08-27 08:05:00,51.6,33.6,29.99,SW,232,0.0,0.0,50,0.00,,---,0.00,VWS V14.01,2013-08-27 14:05:00,
2013-08-27 08:10:00,52.0,33.4,29.99,SW,232,0.0,0.0,49,0.00,,---,0.00,VWS V14.01,2013-08-27 14:10:00,
2013-08-27 08:15:00,52.3,33.8,29.99,SW,232,0.0,0.0,49,0.00,,---,0.00,VWS V14.01,2013-08-27 14:15:00,
2013-08-27 08:20:00,52.9,34.3,29.99,SW,232,0.0,0.0,49,0.00,,---,0.00,VWS V14.01,2013-08-27 14:20:00,
2013-08-27 08:25:00,54.1,35.4,29.99,SW,232,0.0,0.0,49,0.00,,---,0.00,VWS V14.01,2013-08-27 14:25:00,
2013-08-27 08:30:00,55.8,36.9,29.99,SW,232,0.0,0.0,49,0.00,,---,0.00,VWS V14.01,2013-08-27 14:30:00,
2013-08-27 08:35:00,57.4,37.9,29.99,SW,232,0.0,0.0,48,0.00,,---,0.00,VWS V14.01,2013-08-27 14:35:00,
2013-08-27 08:40:00,58.8,38.1,29.99,SW,232,0.0,0.0,46,0.00,,---,0.00,VWS V14.01,2013-08-27 14:40:00,
2013-08-27 08:45:00,60.1,38.7,29.99,SW,232,0.0,0.0,45,0.00,,---,0.00,VWS V14.01,2013-08-27 14:45:00,
2013-08-27 08:50:00,60.8,38.2,29.99,SW,232,0.0,0.0,43,0.00,,---,0.00,VWS V14.01,2013-08-27 14:50:00,
2013-08-27 08:55:00,62.1,35.5,29.99,SE,125,0.0,0.0,37,0.00,,---,0.00,VWS V14.01,2013-08-27 14:55:00,
2013-08-27 09:00:00,62.6,35.3,29.99,East,101,0.0,0.0,36,0.00,,---,0.00,VWS V14.01,2013-08-27 15:00:00,
2013-08-27 09:05:00,62.8,34.0,29.99,East,100,0.0,0.0,34,0.00,,---,0.00,VWS V14.01,2013-08-27 15:05:00,
2013-08-27 09:10:00,62.6,31.6,29.99,East,85,0.0,0.0,31,0.00,,---,0.00,VWS V14.01,2013-08-27 15:10:00,
2013-08-27 09:15:00,63.0,31.1,29.99,East,80,0.0,0.0,30,0.00,,---,0.00,VWS V14.01,2013-08-27 15:15:00,
2013-08-27 09:20:00,63.1,30.4,29.99,NNE,26,0.0,0.0,29,0.00,,---,0.00,VWS V14.01,2013-08-27 15:20:00,
2013-08-27 09:25:00,63.3,31.4,29.99,NNE,26,0.0,0.0,30,0.00,,---,0.00,VWS V14.01,2013-08-27 15:25:00,
2013-08-27 09:30:00,64.2,31.3,29.99,North,10,0.0,0.0,29,0.00,,---,0.00,VWS V14.01,2013-08-27 15:30:00,
2013-08-27 09:35:00,65.1,31.2,29.99,North,353,0.0,0.0,28,0.00,,---,0.00,VWS V14.01,2013-08-27 15:35:00,
2013-08-27 09:40:00,65.7,30.8,29.99,North,0,0.0,0.0,27,0.00,,---,0.00,VWS V14.01,2013-08-27 15:40:00,
2013-08-27 09:45:00,66.4,31.4,29.99,North,357,0.0,0.0,27,0.00,,---,0.00,VWS V14.01,2013-08-27 15:45:00,
2013-08-27 09:50:00,66.7,30.8,29.99,North,357,0.0,2.7,26,0.00,,---,0.00,VWS V14.01,2013-08-27 15:50:00,
2013-08-27 09:55:00,66.6,30.6,29.99,North,357,0.0,2.7,26,0.00,,---,0.00,VWS V14.01,2013-08-27 15:55:00,
2013-08-27 10:00:00,67.1,31.1,29.99,NNE,18,0.0,0.0,26,0.00,,---,0.00,VWS V14.01,2013-08-27 16:00:00,
2013-08-27 10:05:00,67.3,31.2,29.99,North,0,0.0,0.0,26,0.00,,---,0.00,VWS V14.01,2013-08-27 16:05:00,
2013-08-27 10:10:00,67.8,31.7,29.99,North,357,0.0,0.0,26,0.00,,---,0.00,VWS V14.01,2013-08-27 16:10:00,
2013-08-27 10:15:00,68.5,31.4,29.99,NE,50,0.0,0.0,25,0.00,,---,0.00,VWS V14.01,2013-08-27 16:15:00,
2013-08-27 10:20:00,68.9,31.7,29.99,NNW,342,0.0,2.2,25,0.00,,---,0.00,VWS V14.01,2013-08-27 16:20:00,
2013-08-27 10:25:00,69.6,32.3,29.99,NE,54,0.0,2.2,25,0.00,,---,0.00,VWS V14.01,2013-08-27 16:25:00,
2013-08-27 10:30:00,70.3,31.9,29.99,NE,53,0.0,0.0,24,0.00,,---,0.00,VWS V14.01,2013-08-27 16:30:00,
2013-08-27 10:35:00,70.9,31.3,29.99,North,357,0.0,2.2,23,0.00,,---,0.00,VWS V14.01,2013-08-27 16:35:00,
2013-08-27 10:40:00,71.8,30.9,29.99,NE,49,0.0,2.2,22,0.00,,---,0.00,VWS V14.01,2013-08-27 16:40:00,
2013-08-27 10:45:00,72.7,31.7,29.99,NE,40,0.0,0.0,22,0.00,,---,0.00,VWS V14.01,2013-08-27 16:45:00,
2013-08-27 10:50:00,72.7,31.7,29.99,NNE,29,0.0,0.0,22,0.00,,---,0.00,VWS V14.01,2013-08-27 16:50:00,
2013-08-27 10:55:00,72.9,31.8,29.99,NNE,29,0.0,0.0,22,0.00,,---,0.00,VWS V14.01,2013-08-27 16:55:00,
2013-08-27 11:00:00,73.8,31.4,29.99,WNW,299,0.0,0.0,21,0.00,,---,0.00,VWS V14.01,2013-08-27 17:00:00,
2013-08-27 11:05:00,74.7,32.2,29.96,NNE,29,0.0,0.0,21,0.00,,---,0.00,VWS V14.01,2013-08-27 17:05:00,
2013-08-27 11:10:00,74.8,32.3,29.96,NNE,29,0.0,0.0,21,0.00,,---,0.00,VWS V14.01,2013-08-27 17:10:00,
2013-08-27 11:15:00,75.2,32.6,29.96,North,1,0.0,0.0,21,0.00,,---,0.00,VWS V14.01,2013-08-27 17:15:00,
2013-08-27 11:20:00,75.2,32.6,29.96,NE,36,0.0,0.0,21,0.00,,---,0.00,VWS V14.01,2013-08-27 17:20:00,
2013-08-27 11:25:00,74.8,32.3,29.96,NE,36,0.0,0.0,21,0.00,,---,0.00,VWS V14.01,2013-08-27 17:25:00,
2013-08-27 11:30:00,75.4,32.8,29.96,NE,37,0.0,0.0,21,0.00,,---,0.00,VWS V14.01,2013-08-27 17:30:00,
2013-08-27 11:35:00,75.9,32.0,29.96,East,96,2.2,3.1,20,0.00,,---,0.00,VWS V14.01,2013-08-27 17:35:00,
2013-08-27 11:40:00,76.3,32.3,29.96,East,83,0.0,3.1,20,0.00,,---,0.00,VWS V14.01,2013-08-27 17:40:00,
2013-08-27 11:45:00,76.8,32.8,29.96,East,97,0.0,0.0,20,0.00,,---,0.00,VWS V14.01,2013-08-27 17:45:00,
2013-08-27 11:50:00,77.4,33.2,29.96,ENE,64,0.0,0.0,20,0.00,,---,0.00,VWS V14.01,2013-08-27 17:50:00,
2013-08-27 11:55:00,77.9,33.6,29.96,ENE,67,4.9,4.9,20,0.00,,---,0.00,VWS V14.01,2013-08-27 17:55:00,
2013-08-27 12:00:00,78.3,33.9,29.96,ENE,71,0.0,0.0,20,0.00,,---,0.00,VWS V14.01,2013-08-27 18:00:00,
2013-08-27 12:05:00,78.8,34.4,29.96,NE,50,3.1,4.0,20,0.00,,---,0.00,VWS V14.01,2013-08-27 18:05:00,
2013-08-27 12:10:00,78.4,31.5,29.96,North,11,0.0,4.0,18,0.00,,---,0.00,VWS V14.01,2013-08-27 18:10:00,
2013-08-27 12:15:00,78.4,31.5,29.96,ENE,72,0.0,0.0,18,0.00,,---,0.00,VWS V14.01,2013-08-27 18:15:00,
2013-08-27 12:20:00,79.5,30.9,29.93,NE,52,0.0,4.9,17,0.00,,---,0.00,VWS V14.01,2013-08-27 18:20:00,
2013-08-27 12:25:00,79.2,30.6,29.93,North,357,0.0,4.9,17,0.00,,---,0.00,VWS V14.01,2013-08-27 18:25:00,
2013-08-27 12:30:00,79.2,30.6,29.93,NE,56,2.7,3.1,17,0.00,,---,0.00,VWS V14.01,2013-08-27 18:30:00,
2013-08-27 12:35:00,79.9,31.2,29.93,East,85,2.7,3.6,17,0.00,,---,0.00,VWS V14.01,2013-08-27 18:35:00,
2013-08-27 12:40:00,80.6,31.8,29.93,ENE,65,3.1,3.6,17,0.00,,---,0.00,VWS V14.01,2013-08-27 18:40:00,
2013-08-27 12:45:00,80.2,31.5,29.93,ENE,65,2.2,2.2,17,0.00,,---,0.00,VWS V14.01,2013-08-27 18:45:00,
2013-08-27 12:50:00,80.4,31.7,29.93,NE,42,2.2,3.6,17,0.00,,---,0.00,VWS V14.01,2013-08-27 18:50:00,
2013-08-27 12:55:00,81.1,32.2,29.93,North,0,0.0,4.0,17,0.00,,---,0.00,VWS V14.01,2013-08-27 18:55:00,
2013-08-27 13:00:00,81.3,32.4,29.93,ENE,65,0.0,2.7,17,0.00,,---,0.00,VWS V14.01,2013-08-27 19:00:00,
2013-08-27 13:05:00,81.9,32.8,29.93,NNE,28,0.0,3.1,17,0.00,,---,0.00,VWS V14.01,2013-08-27 19:05:00,
2013-08-27 13:10:00,82.8,32.0,29.93,North,357,2.7,3.6,16,0.00,,---,0.00,VWS V14.01,2013-08-27 19:10:00,
2013-08-27 13:15:00,81.7,32.7,29.93,NNW,336,2.7,2.7,17,0.00,,---,0.00,VWS V14.01,2013-08-27 19:15:00,
2013-08-27 13:20:00,82.0,33.0,29.93,NE,49,2.2,3.1,17,0.00,,---,0.00,VWS V14.01,2013-08-27 19:20:00,
2013-08-27 13:25:00,82.2,33.1,29.93,North,357,0.0,3.1,17,0.00,,---,0.00,VWS V14.01,2013-08-27 19:25:00,
2013-08-27 13:30:00,82.2,33.1,29.93,NE,52,0.0,0.0,17,0.00,,---,0.00,VWS V14.01,2013-08-27 19:30:00,
2013-08-27 13:35:00,82.9,32.2,29.91,NNW,343,0.0,4.0,16,0.00,,---,0.00,VWS V14.01,2013-08-27 19:35:00,
2013-08-27 13:40:00,83.7,32.8,29.91,North,10,0.0,4.0,16,0.00,,---,0.00,VWS V14.01,2013-08-27 19:40:00,
2013-08-27 13:45:00,84.0,33.0,29.91,NNE,22,0.0,2.2,16,0.00,,---,0.00,VWS V14.01,2013-08-27 19:45:00,
2013-08-27 13:50:00,84.6,33.5,29.91,NNE,13,0.0,4.0,16,0.00,,---,0.00,VWS V14.01,2013-08-27 19:50:00,
2013-08-27 13:55:00,84.9,33.8,29.91,NNE,16,0.0,4.0,16,0.00,,---,0.00,VWS V14.01,2013-08-27 19:55:00,
2013-08-27 14:00:00,85.6,34.3,29.91,NE,56,0.0,0.0,16,0.00,,---,0.00,VWS V14.01,2013-08-27 20:00:00,
2013-08-27 14:05:00,85.6,34.3,29.91,North,353,0.0,2.7,16,0.00,,---,0.00,VWS V14.01,2013-08-27 20:05:00,
2013-08-27 14:10:00,86.4,34.9,29.91,NE,53,2.2,3.1,16,0.00,,---,0.00,VWS V14.01,2013-08-27 20:10:00,
2013-08-27 14:15:00,86.7,35.2,29.91,NNE,26,3.1,3.1,16,0.00,,---,0.00,VWS V14.01,2013-08-27 20:15:00,
2013-08-27 14:20:00,87.1,35.5,29.91,NE,54,0.0,4.0,16,0.00,,---,0.00,VWS V14.01,2013-08-27 20:20:00,
2013-08-27 14:25:00,85.5,34.2,29.91,NNE,18,0.0,4.0,16,0.00,,---,0.00,VWS V14.01,2013-08-27 20:25:00,
2013-08-27 14:30:00,84.6,33.5,29.91,North,0,0.0,0.0,16,0.00,,---,0.00,VWS V14.01,2013-08-27 20:30:00,
2013-08-27 14:35:00,84.9,33.8,29.91,ENE,58,0.0,2.7,16,0.00,,---,0.00,VWS V14.01,2013-08-27 20:35:00,
2013-08-27 14:40:00,85.3,34.1,29.91,NE,53,2.2,4.0,16,0.00,,---,0.00,VWS V14.01,2013-08-27 20:40:00,
2013-08-27 14:45:00,87.3,35.6,29.91,NE,52,0.0,2.2,16,0.00,,---,0.00,VWS V14.01,2013-08-27 20:45:00,
2013-08-27 14:50:00,89.2,35.6,29.91,ENE,74,3.6,3.6,15,0.00,,---,0.00,VWS V14.01,2013-08-27 20:50:00,
2013-08-27 14:55:00,89.8,30.5,29.91,North,357,0.0,3.6,12,0.00,,---,0.00,VWS V14.01,2013-08-27 20:55:00,
2013-08-27 15:00:00,90.0,30.6,29.91,North,3,0.0,0.0,12,0.00,,---,0.00,VWS V14.01,2013-08-27 21:00:00,
2013-08-27 15:05:00,89.6,30.3,29.88,North,2,2.2,3.1,12,0.00,,---,0.00,VWS V14.01,2013-08-27 21:05:00,
2013-08-27 15:10:00,89.1,31.9,29.88,North,0,0.0,3.1,13,0.00,,---,0.00,VWS V14.01,2013-08-27 21:10:00,
2013-08-27 15:15:00,89.2,32.0,29.88,NNE,12,0.0,0.0,13,0.00,,---,0.00,VWS V14.01,2013-08-27 21:15:00,
2013-08-27 15:20:00,88.9,31.7,29.88,North,7,0.0,3.1,13,0.00,,---,0.00,VWS V14.01,2013-08-27 21:20:00,
2013-08-27 15:25:00,87.8,30.9,29.88,North,11,0.0,3.1,13,0.00,,---,0.00,VWS V14.01,2013-08-27 21:25:00,
2013-08-27 15:30:00,86.4,29.8,29.88,North,353,0.0,0.0,13,0.00,,---,0.00,VWS V14.01,2013-08-27 21:30:00,
2013-08-27 15:35:00,85.6,29.2,29.88,North,0,0.0,0.0,13,0.00,,---,0.00,VWS V14.01,2013-08-27 21:35:00,
2013-08-27 15:40:00,85.6,29.2,29.88,NNW,337,0.0,0.0,13,0.00,,---,0.00,VWS V14.01,2013-08-27 21:40:00,
2013-08-27 15:45:00,85.1,28.8,29.88,NNW,334,0.0,0.0,13,0.00,,---,0.00,VWS V14.01,2013-08-27 21:45:00,
2013-08-27 15:50:00,85.3,28.9,29.88,NNW,338,0.0,0.0,13,0.00,,---,0.00,VWS V14.01,2013-08-27 21:50:00,
2013-08-27 15:55:00,85.3,28.9,29.88,NNW,338,0.0,0.0,13,0.00,,---,0.00,VWS V14.01,2013-08-27 21:55:00,
2013-08-27 16:00:00,85.1,33.9,29.88,NNW,338,0.0,0.0,16,0.00,,---,0.00,VWS V14.01,2013-08-27 22:00:00,
2013-08-27 16:05:00,84.6,33.5,29.88,NNW,338,0.0,0.0,16,0.00,,---,0.00,VWS V14.01,2013-08-27 22:05:00,
2013-08-27 16:10:00,84.0,33.0,29.88,NNW,338,0.0,0.0,16,0.00,,---,0.00,VWS V14.01,2013-08-27 22:10:00,
2013-08-27 16:15:00,82.4,36.0,29.88,SE,142,3.6,3.6,19,0.00,,---,0.00,VWS V14.01,2013-08-27 22:15:00,
2013-08-27 16:20:00,80.2,35.6,29.88,ESE,118,3.6,4.0,20,0.00,,---,0.00,VWS V14.01,2013-08-27 22:20:00,
2013-08-27 16:25:00,79.0,35.8,29.88,SSE,155,4.9,5.4,21,0.00,,---,0.00,VWS V14.01,2013-08-27 22:25:00,
2013-08-27 16:30:00,78.3,35.2,29.88,SE,130,6.3,6.3,21,0.00,,---,0.00,VWS V14.01,2013-08-27 22:30:00,
2013-08-27 16:35:00,79.0,34.5,29.91,SSW,200,5.8,6.3,20,0.00,,---,0.00,VWS V14.01,2013-08-27 22:35:00,
2013-08-27 16:40:00,82.6,31.9,29.91,South,171,4.0,7.2,16,0.00,,---,0.00,VWS V14.01,2013-08-27 22:40:00,
2013-08-27 16:45:00,88.0,31.0,29.91,SSW,199,0.0,0.0,13,0.00,,---,0.00,VWS V14.01,2013-08-27 22:45:00,
2013-08-27 16:50:00,90.7,31.2,29.88,WNW,294,3.1,7.2,12,0.00,,---,0.00,VWS V14.01,2013-08-27 22:50:00,
2013-08-27 16:55:00,89.1,31.9,29.88,SW,232,5.8,8.3,13,0.00,,---,0.00,VWS V14.01,2013-08-27 22:55:00,
2013-08-27 17:00:00,88.3,31.3,29.88,North,353,4.9,4.9,13,0.00,,---,0.00,VWS V14.01,2013-08-27 23:00:00,
2013-08-27 17:05:00,88.0,31.0,29.88,WNW,282,4.9,10.1,13,0.00,,---,0.00,VWS V14.01,2013-08-27 23:05:00,
2013-08-27 17:10:00,88.3,31.3,29.88,SSW,211,2.7,10.1,13,0.00,,---,0.00,VWS V14.01,2013-08-27 23:10:00,
2013-08-27 17:15:00,88.3,31.3,29.88,NW,322,5.4,5.4,13,0.00,,---,0.00,VWS V14.01,2013-08-27 23:15:00,
2013-08-27 17:20:00,88.3,31.3,29.88,West,262,0.0,8.1,13,0.00,,---,0.00,VWS V14.01,2013-08-27 23:20:00,
2013-08-27 17:25:00,88.5,31.5,29.88,WSW,254,2.2,8.1,13,0.00,,---,0.00,VWS V14.01,2013-08-27 23:25:00,
2013-08-27 17:30:00,89.1,31.9,29.88,NW,313,2.2,3.6,13,0.00,,---,0.00,VWS V14.01,2013-08-27 23:30:00,
2013-08-27 17:35:00,88.2,31.2,29.88,West,265,0.0,4.9,13,0.00,,---,0.00,VWS V14.01,2013-08-27 23:35:00,
2013-08-27 17:40:00,86.7,30.0,29.88,West,265,0.0,4.9,13,0.00,,---,0.00,VWS V14.01,2013-08-27 23:40:00,
2013-08-27 17:45:00,85.8,29.4,29.88,West,269,0.0,0.0,13,0.00,,---,0.00,VWS V14.01,2013-08-27 23:45:00,
2013-08-27 17:50:00,85.5,29.1,29.88,ENE,72,0.0,0.0,13,0.00,,---,0.00,VWS V14.01,2013-08-27 23:50:00,
2013-08-27 17:55:00,84.6,28.4,29.88,North,7,0.0,4.0,13,0.00,,---,0.00,VWS V14.01,2013-08-27 23:55:00,
2013-08-27 18:00:00,82.6,28.6,29.88,NNE,27,0.0,0.0,14,0.00,,---,0.00,VWS V14.01,2013-08-28 00:00:00,
2013-08-27 18:05:00,80.8,27.2,29.88,NNE,24,0.0,2.7,14,0.00,,---,0.00,VWS V14.01,2013-08-28 00:05:00,
2013-08-27 18:10:00,79.9,31.2,29.88,NNE,33,0.0,3.1,17,0.00,,---,0.00,VWS V14.01,2013-08-28 00:10:00,
2013-08-27 18:15:00,79.2,30.6,29.88,NNW,345,0.0,0.0,17,0.00,,---,0.00,VWS V14.01,2013-08-28 00:15:00,
2013-08-27 18:20:00,78.3,31.3,29.88,NNE,23,0.0,2.2,18,0.00,,---,0.00,VWS V14.01,2013-08-28 00:20:00,
2013-08-27 18:25:00,77.2,33.0,29.88,NNE,27,0.0,2.2,20,0.00,,---,0.00,VWS V14.01,2013-08-28 00:25:00,
2013-08-27 18:30:00,76.5,33.7,29.88,NNE,24,0.0,0.0,21,0.00,,---,0.00,VWS V14.01,2013-08-28 00:30:00,
2013-08-27 18:35:00,76.3,33.5,29.88,North,2,0.0,0.0,21,0.00,,---,0.00,VWS V14.01,2013-08-28 00:35:00,
2013-08-27 18:40:00,76.3,33.5,29.88,North,2,0.0,0.0,21,0.00,,---,0.00,VWS V14.01,2013-08-28 00:40:00,
2013-08-27 18:45:00,76.5,33.7,29.88,North,2,0.0,0.0,21,0.00,,---,0.00,VWS V14.01,2013-08-28 00:45:00,
2013-08-27 18:50:00,76.5,33.7,29.88,WNW,303,0.0,0.0,21,0.00,,---,0.00,VWS V14.01,2013-08-28 00:50:00,
2013-08-27 18:55:00,76.5,33.7,29.88,WNW,292,0.0,2.2,21,0.00,,---,0.00,VWS V14.01,2013-08-28 00:55:00,
2013-08-27 19:00:00,76.3,33.5,29.88,WNW,292,0.0,0.0,21,0.00,,---,0.00,VWS V14.01,2013-08-28 01:00:00,
2013-08-27 19:05:00,76.1,33.4,29.88,WNW,286,0.0,0.0,21,0.00,,---,0.00,VWS V14.01,2013-08-28 01:05:00,
2013-08-27 19:10:00,76.1,33.4,29.88,WSW,255,0.0,4.0,21,0.00,,---,0.00,VWS V14.01,2013-08-28 01:10:00,
2013-08-27 19:15:00,76.1,33.4,29.88,West,266,2.7,2.7,21,0.00,,---,0.00,VWS V14.01,2013-08-28 01:15:00,
2013-08-27 19:20:00,75.9,33.2,29.88,West,269,0.0,2.7,21,0.00,,---,0.00,VWS V14.01,2013-08-28 01:20:00,
2013-08-27 19:25:00,75.7,33.1,29.88,West,269,0.0,2.7,21,0.00,,---,0.00,VWS V14.01,2013-08-28 01:25:00,
2013-08-27 19:30:00,75.4,32.8,29.88,West,269,0.0,0.0,21,0.00,,---,0.00,VWS V14.01,2013-08-28 01:30:00,
2013-08-27 19:35:00,75.2,32.6,29.88,West,269,0.0,0.0,21,0.00,,---,0.00,VWS V14.01,2013-08-28 01:35:00,
2013-08-27 19:40:00,74.8,33.5,29.88,West,269,0.0,0.0,22,0.00,,---,0.00,VWS V14.01,2013-08-28 01:40:00,
2013-08-27 19:45:00,74.3,36.2,29.88,West,269,0.0,0.0,25,0.00,,---,0.00,VWS V14.01,2013-08-28 01:45:00,
2013-08-27 19:50:00,73.0,40.6,29.88,West,269,0.0,0.0,31,0.00,,---,0.00,VWS V14.01,2013-08-28 01:50:00,
2013-08-27 19:55:00,72.7,41.2,29.88,West,269,0.0,0.0,32,0.00,,---,0.00,VWS V14.01,2013-08-28 01:55:00,
2013-08-27 20:00:00,72.1,39.9,29.88,West,269,0.0,0.0,31,0.00,,---,0.00,VWS V14.01,2013-08-28 02:00:00,
2013-08-27 20:05:00,71.4,40.0,29.88,WSW,249,0.0,0.0,32,0.00,,---,0.00,VWS V14.01,2013-08-28 02:05:00,
2013-08-27 20:10:00,71.1,39.7,29.88,WSW,249,0.0,0.0,32,0.00,,---,0.00,VWS V14.01,2013-08-28 02:10:00,
2013-08-27 20:15:00,70.7,40.2,29.88,SW,236,0.0,0.0,33,0.00,,---,0.00,VWS V14.01,2013-08-28 02:15:00,
2013-08-27 20:20:00,70.5,41.6,29.88,WSW,246,2.7,3.1,35,0.00,,---,0.00,VWS V14.01,2013-08-28 02:20:00,
2013-08-27 20:25:00,70.3,40.7,29.88,South,191,0.0,3.6,34,0.00,,---,0.00,VWS V14.01,2013-08-28 02:25:00,
2013-08-27 20:30:00,68.4,38.9,29.88,ESE,115,3.1,3.1,34,0.00,,---,0.00,VWS V14.01,2013-08-28 02:30:00,
2013-08-27 20:35:00,64.4,38.3,29.88,SE,141,0.0,4.0,38,0.00,,---,0.00,VWS V14.01,2013-08-28 02:35:00,
2013-08-27 20:40:00,63.7,42.0,29.91,SE,141,0.0,4.0,45,0.00,,---,0.00,VWS V14.01,2013-08-28 02:40:00,
2013-08-27 20:45:00,64.0,42.3,29.91,SW,226,4.9,4.9,45,0.00,,---,0.00,VWS V14.01,2013-08-28 02:45:00,
2013-08-27 20:50:00,65.8,40.2,29.91,South,185,10.5,10.5,39,0.00,,---,0.00,VWS V14.01,2013-08-28 02:50:00,
2013-08-27 20:55:00,68.7,39.2,29.91,South,179,3.6,10.5,34,0.00,,---,0.00,VWS V14.01,2013-08-28 02:55:00,
2013-08-27 21:00:00,69.8,38.6,29.91,SSW,192,4.9,4.9,32,0.00,,---,0.00,VWS V14.01,2013-08-28 03:00:00,
2013-08-27 21:05:00,70.3,39.1,29.93,South,184,0.0,4.9,32,0.00,,---,0.00,VWS V14.01,2013-08-28 03:05:00,
2013-08-27 21:10:00,70.9,39.6,29.93,SSE,159,0.0,4.9,32,0.00,,---,0.00,VWS V14.01,2013-08-28 03:10:00,
2013-08-27 21:15:00,70.9,39.6,29.93,SSE,164,0.0,0.0,32,0.00,,---,0.00,VWS V14.01,2013-08-28 03:15:00,
2013-08-27 21:20:00,71.4,37.5,29.93,South,172,0.0,3.6,29,0.00,,---,0.00,VWS V14.01,2013-08-28 03:20:00,
2013-08-27 21:25:00,71.8,37.0,29.93,SE,142,0.0,3.6,28,0.00,,---,0.00,VWS V14.01,2013-08-28 03:25:00,
2013-08-27 21:30:00,71.8,35.1,29.93,ENE,63,0.0,0.0,26,0.00,,---,0.00,VWS V14.01,2013-08-28 03:30:00,
2013-08-27 21:35:00,71.1,35.4,29.93,NE,44,0.0,0.0,27,0.00,,---,0.00,VWS V14.01,2013-08-28 03:35:00,
2013-08-27 21:40:00,70.2,36.5,29.93,NE,44,0.0,0.0,29,0.00,,---,0.00,VWS V14.01,2013-08-28 03:40:00,
2013-08-27 21:45:00,69.8,36.1,29.93,SSE,159,2.2,2.2,29,0.00,,---,0.00,VWS V14.01,2013-08-28 03:45:00,
2013-08-27 21:50:00,69.4,35.8,29.93,SSE,164,0.0,2.7,29,0.00,,---,0.00,VWS V14.01,2013-08-28 03:50:00,
2013-08-27 21:55:00,69.3,36.5,29.93,South,189,4.0,5.4,30,0.00,,---,0.00,VWS V14.01,2013-08-28 03:55:00,
2013-08-27 22:00:00,69.3,36.5,29.93,WSW,243,2.7,4.0,30,0.00,,---,0.00,VWS V14.01,2013-08-28 04:00:00,
2013-08-27 22:01:00,69.3,36.5,29.93,South,179,2.7,4.0,30,0.00,,---,0.00,VWS V14.01,2013-08-28 04:01:00,
2013-08-27 22:06:00,69.4,35.0,29.93,SSW,192,4.0,7.6,28,0.00,,---,0.00,VWS V14.01,2013-08-28 04:06:00,
2013-08-27 22:11:00,69.3,34.8,29.93,SSW,211,3.6,7.6,28,0.00,,---,0.00,VWS V14.01,2013-08-28 04:11:00,
2013-08-27 22:16:00,69.6,34.2,29.93,SSE,166,3.1,8.3,27,0.00,,---,0.00,VWS V14.01,2013-08-28 04:16:00,
2013-08-27 22:21:00,70.2,33.7,29.91,SW,224,5.8,8.3,26,0.00,,---,0.00,VWS V14.01,2013-08-28 04:21:00,
2013-08-27 22:26:00,70.3,33.9,29.91,SW,218,4.9,8.7,26,0.00,,---,0.00,VWS V14.01,2013-08-28 04:26:00,
2013-08-27 22:31:00,70.2,33.7,29.91,SSE,154,3.6,4.0,26,0.00,,---,0.00,VWS V14.01,2013-08-28 04:31:00,
2013-08-27 22:36:00,69.8,33.4,29.91,South,180,2.2,4.0,26,0.00,,---,0.00,VWS V14.01,2013-08-28 04:36:00,
2013-08-27 22:41:00,69.4,34.0,29.91,South,191,0.0,4.0,27,0.00,,---,0.00,VWS V14.01,2013-08-28 04:41:00,
2013-08-27 22:46:00,68.7,34.3,29.91,South,191,0.0,0.0,28,0.00,,---,0.00,VWS V14.01,2013-08-28 04:46:00,
2013-08-27 22:51:00,68.0,33.7,29.91,South,191,0.0,0.0,28,0.00,,---,0.00,VWS V14.01,2013-08-28 04:51:00,
2013-08-27 22:56:00,67.6,35.1,29.91,SE,127,0.0,4.5,30,0.00,,---,0.00,VWS V14.01,2013-08-28 04:56:00,
2013-08-27 23:01:00,67.3,35.6,29.91,SW,236,2.7,4.0,31,0.00,,---,0.00,VWS V14.01,2013-08-28 05:01:00,
2013-08-27 23:06:00,66.7,36.8,29.91,SW,223,2.7,4.0,33,0.00,,---,0.00,VWS V14.01,2013-08-28 05:06:00,
2013-08-27 23:11:00,65.7,36.6,29.91,SW,226,0.0,4.0,34,0.00,,---,0.00,VWS V14.01,2013-08-28 05:11:00,
2013-08-27 23:16:00,64.6,35.6,29.91,SSE,147,0.0,0.0,34,0.00,,---,0.00,VWS V14.01,2013-08-28 05:16:00,
2013-08-27 23:21:00,63.9,35.0,29.91,SSW,212,2.7,4.0,34,0.00,,---,0.00,VWS V14.01,2013-08-28 05:21:00,
2013-08-27 23:26:00,63.7,35.5,29.91,ESE,108,0.0,4.0,35,0.00,,---,0.00,VWS V14.01,2013-08-28 05:26:00,
2013-08-27 23:30:00,63.3,35.2,29.91,ESE,108,0.0,4.0,35,0.00,,---,0.00,VWS V14.01,2013-08-28 05:30:00,
2013-08-27 23:35:00,62.6,35.3,29.91,ESE,108,0.0,0.0,36,0.00,,---,0.00,VWS V14.01,2013-08-28 05:35:00,
2013-08-27 23:40:00,61.9,35.3,29.91,SSW,212,0.0,0.0,37,0.00,,---,0.00,VWS V14.01,2013-08-28 05:40:00,
2013-08-27 23:45:00,61.5,35.7,29.91,SSW,212,0.0,0.0,38,0.00,,---,0.00,VWS V14.01,2013-08-28 05:45:00,
2013-08-27 23:50:00,61.0,35.2,29.91,WSW,256,0.0,0.0,38,0.00,,---,0.00,VWS V14.01,2013-08-28 05:50:00,
2013-08-27 23:55:00,60.6,34.9,29.93,WSW,257,0.0,0.0,38,0.00,,---,0.00,VWS V14.01,2013-08-28 05:55:00,